OCULUS-ASR SPHERE 1 (44376 NORAD) Tracking and Keplerian Element Data

This shows tracking and keplerian element data for the satellite.

Feedback or suggestion? Click here.




ElementValue
Catalog44376
NameOCULUS-ASR SPHERE 1
Epoch Orbit339
Epoch Day204.62346649
Epoch Year2019
RAAN13.1684
Inclination28.5127
Eccentricity0.0264216
Argument of Perigee52.3427
Mean Anonmoly12.9386
Mean Motion15.24154634
Decay Rate-0.00273409
L11 44376U 19036AA 19204.62346649 -.00273409 00000-0 -39574-2 0 9996
L22 44376 28.5127 13.1684 0264216 52.3427 12.9386 15.24154634 3397



Live tracking and technical data element details for OCULUS-ASR SPHERE 1 (NORAD 44376). OCULUS-ASR SPHERE 1 can be tracked NOW for your location showing map with azimuth and elevation plus other details from your city location.







IsCatalogInMostPopularTable: catalog: 44376, numindb: 164
Update: records affected: 1



GetName: 44376 OCULUS-ASR SPHERE 1

Hit Count: updated at: Sun, 11 Jun 2023 01:00:41 GMT